Location: B�hl
(48.6968°N, 8.1352°E)
Time: 07:51:17
(UTC+00:00)

USA 81 - Pass Details

Date: 08 March 2021
Orbit: 784 x 789 km, 85.0° (Epoch: 06 April)

Event Time Altitude Azimuth Distance (km) Brightness Sun altitude
Rises 19:14:42 0° 174° (S) 3,269 7.0 -19.2°
Reaches altitude 10° 19:17:03 10° 171° (S) 2,344 6.3 -19.6°
Maximum altitude 19:22:15 63° 91° (E) 881 4.0 -20.4°
Drops below altitude 10° 19:27:28 10° 12° (NNE) 2,358 6.6 -21.2°
Sets 19:29:51 0° 9° (N) 3,291 7.4 -21.6°
